| time (UTC) | temp F | wind direction | speed knots | gust knots | rain 1hr in | rain 24hr in | rain mn in | humidity % | barometer mb |
| 20260510060042 | 75 | 169 | 0.9 | 4.3 | 0.00 | 0.00 | 0.00 | 57 | 1011.5 |
| 20260510054532 | 74 | 0 | 0.0 | 0.0 | 0.00 | 0.00 | 0.00 | 56 | 1009.4 |
| 20260510053035 | 73 | 0 | 0.0 | 0.0 | 0.00 | 0.00 | 0.00 | 56 | 1008.6 |
| 20260510051532 | 74 | 0 | 0.0 | 0.0 | 0.00 | 0.00 | 0.00 | 54 | 1008.5 |
| 20260510050039 | 74 | 0 | 0.0 | 0.0 | 0.00 | 0.00 | 0.00 | 53 | 1008.4 |
| 20260510044537 | 75 | 0 | 0.0 | 1.7 | 0.00 | 0.00 | 0.00 | 51 | 1007.9 |
| 20260510043035 | 75 | 89 | 0.0 | 2.6 | 0.00 | 0.00 | 0.00 | 52 | 1007.9 |
| 20260510041538 | 75 | 0 | 0.0 | 0.0 | 0.00 | 0.00 | 0.00 | 52 | 1008.2 |
| 20260510040034 | 75 | 122 | 0.0 | 1.7 | 0.00 | 0.00 | 0.00 | 51 | 1008.3 |
| 20260510034538 | 75 | 0 | 0.0 | 0.0 | 0.00 | 0.00 | 0.00 | 52 | 1008.5 |
| 20260510033039 | 75 | 0 | 0.0 | 0.9 | 0.00 | 0.00 | 0.00 | 52 | 1008.5 |
| 20260510031551 | 76 | 0 | 0.0 | 0.0 | 0.00 | 0.00 | 0.00 | 50 | 1008.7 |
| 20260510030037 | 77 | 0 | 0.0 | 0.0 | 0.00 | 0.00 | 0.00 | 50 | 1008.6 |
| 20260510024537 | 77 | 0 | 0.0 | 0.0 | 0.00 | 0.00 | 0.00 | 50 | 1008.6 |
| 20260510023043 | 78 | 0 | 0.0 | 0.0 | 0.00 | 0.00 | 0.00 | 48 | 1008.5 |
| 20260510021539 | 78 | 0 | 0.0 | 0.9 | 0.00 | 0.00 | 0.00 | 48 | 1008.3 |
| 20260510020035 | 79 | 0 | 0.0 | 0.9 | 0.00 | 0.00 | 0.00 | 50 | 1008.0 |
| 20260510014536 | 79 | 0 | 0.0 | 0.0 | 0.00 | 0.00 | 0.00 | 50 | 1007.9 |
| 20260510013040 | 80 | 0 | 0.0 | 0.0 | 0.00 | 0.00 | 0.00 | 51 | 1007.8 |
| 20260510011538 | 81 | 0 | 0.0 | 0.0 | 0.00 | 0.00 | 0.00 | 48 | 1007.5 |
| 20260510010038 | 81 | 0 | 0.0 | 0.9 | 0.00 | 0.00 | 0.00 | 47 | 1007.3 |
| 20260510004538 | 81 | 139 | 0.0 | 0.9 | 0.00 | 0.00 | 0.00 | 43 | 1007.3 |
| 20260510003039 | 83 | 139 | 0.0 | 0.0 | 0.00 | 0.00 | 0.00 | 47 | 1007.3 |
| 20260510001537 | 85 | 0 | 0.0 | 0.0 | 0.00 | 0.00 | 0.00 | 41 | 1007.3 |
| 20260510000038 | 88 | 0 | 0.0 | 0.0 | 0.00 | 0.00 | 0.00 | 37 | 1007.2 |
| 20260509234538 | 91 | 0 | 0.0 | 0.0 | 0.00 | 0.00 | 0.00 | 32 | 1007.3 |
| 20260509233034 | 89 | 0 | 0.0 | 0.0 | 0.00 | 0.00 | 0.00 | 35 | 1007.5 |
| 20260509231534 | 88 | 0 | 0.0 | 0.9 | 0.00 | 0.00 | 0.00 | 33 | 1007.5 |
| 20260509230032 | 89 | 0 | 0.0 | 1.7 | 0.00 | 0.00 | 0.00 | 32 | 1007.5 |
| 20260509224539 | 92 | 0 | 0.0 | 0.0 | 0.00 | 0.00 | 0.00 | 30 | 1007.5 |
| 20260509223036 | 91 | 94 | 0.0 | 1.7 | 0.00 | 0.00 | 0.00 | 28 | 1007.6 |
| 20260509221535 | 91 | 32 | 0.0 | 1.7 | 0.00 | 0.00 | 0.00 | 30 | 1007.6 |
| 20260509220038 | 89 | 79 | 0.9 | 2.6 | 0.00 | 0.00 | 0.00 | 34 | 1007.7 |
| 20260509214536 | 90 | 276 | 0.9 | 4.3 | 0.00 | 0.00 | 0.00 | 32 | 1007.7 |
| 20260509213034 | 89 | 0 | 0.9 | 3.5 | 0.00 | 0.00 | 0.00 | 35 | 1007.8 |
| 20260509211544 | 90 | 0 | 0.0 | 1.7 | 0.00 | 0.00 | 0.00 | 34 | 1008.0 |
| 20260509210039 | 89 | 169 | 0.9 | 2.6 | 0.00 | 0.00 | 0.00 | 36 | 1008.2 |
| 20260509204537 | 88 | 181 | 0.0 | 2.6 | 0.00 | 0.00 | 0.00 | 35 | 1008.3 |
| 20260509203033 | 87 | 164 | 0.9 | 2.6 | 0.00 | 0.00 | 0.00 | 38 | 1008.5 |
| 20260509201532 | 88 | 85 | 0.0 | 2.6 | 0.00 | 0.00 | 0.00 | 37 | 1008.7 |
| 20260509200043 | 87 | 0 | 0.9 | 3.5 | 0.00 | 0.00 | 0.00 | 39 | 1008.8 |
| 20260509194538 | 88 | 108 | 0.0 | 2.6 | 0.00 | 0.00 | 0.00 | 40 | 1009.1 |
| 20260509193037 | 88 | 0 | 0.0 | 1.7 | 0.00 | 0.00 | 0.00 | 42 | 1009.2 |
| 20260509191535 | 88 | 135 | 0.0 | 2.6 | 0.00 | 0.00 | 0.00 | 40 | 1009.2 |
| 20260509190033 | 89 | 173 | 0.9 | 1.7 | 0.00 | 0.00 | 0.00 | 35 | 1009.4 |
| 20260509184554 | 89 | 0 | 0.0 | 1.7 | 0.00 | 0.00 | 0.00 | 36 | 1009.5 |
| 20260509183039 | 87 | 0 | 0.0 | 2.6 | 0.00 | 0.00 | 0.00 | 39 | 1009.6 |
| 20260509181543 | 86 | 148 | 0.0 | 1.7 | 0.00 | 0.00 | 0.00 | 40 | 1009.8 |
| 20260509180038 | 87 | 154 | 0.0 | 1.7 | 0.00 | 0.00 | 0.00 | 38 | 1009.9 |
| 20260509174536 | 87 | 0 | 0.0 | 1.7 | 0.00 | 0.00 | 0.00 | 38 | 1010.1 |
| 20260509173035 | 86 | 160 | 0.0 | 1.7 | 0.00 | 0.00 | 0.00 | 40 | 1010.1 |
| 20260509171539 | 85 | 169 | 0.9 | 3.5 | 0.00 | 0.00 | 0.00 | 42 | 1010.3 |
| 20260509170032 | 85 | 103 | 0.0 | 1.7 | 0.00 | 0.00 | 0.00 | 41 | 1010.5 |
| 20260509164537 | 83 | 155 | 0.0 | 4.3 | 0.00 | 0.00 | 0.00 | 42 | 1010.5 |
| 20260509163044 | 83 | 115 | 0.0 | 3.5 | 0.00 | 0.00 | 0.00 | 41 | 1010.5 |
| 20260509161534 | 82 | 134 | 0.9 | 5.2 | 0.00 | 0.00 | 0.00 | 42 | 1010.4 |
| 20260509160032 | 81 | 143 | 0.0 | 3.5 | 0.00 | 0.00 | 0.00 | 46 | 1010.4 |
| 20260509154544 | 80 | 152 | 0.9 | 2.6 | 0.00 | 0.00 | 0.00 | 56 | 1010.3 |
| 20260509153033 | 78 | 103 | 0.9 | 2.6 | 0.00 | 0.00 | 0.00 | 62 | 1010.3 |
| 20260509151538 | 77 | 0 | 0.0 | 2.6 | 0.00 | 0.00 | 0.00 | 63 | 1010.4 |
| 20260509150037 | 76 | 165 | 0.0 | 2.6 | 0.00 | 0.00 | 0.00 | 63 | 1010.4 |
| 20260509144532 | 75 | 0 | 0.0 | 3.5 | 0.00 | 0.00 | 0.00 | 67 | 1010.4 |
| 20260509143045 | 74 | 0 | 0.0 | 0.9 | 0.00 | 0.00 | 0.00 | 69 | 1010.4 |
| 20260509141541 | 73 | 0 | 0.0 | 0.9 | 0.00 | 0.00 | 0.00 | 75 | 1010.3 |
| 20260509140040 | 72 | 0 | 0.0 | 0.9 | 0.00 | 0.00 | 0.00 | 78 | 1010.5 |
| 20260509134537 | 71 | 0 | 0.0 | 0.9 | 0.00 | 0.00 | 0.00 | 79 | 1010.3 |
| 20260509133038 | 70 | 0 | 0.0 | 0.9 | 0.00 | 0.00 | 0.00 | 80 | 1010.2 |
| 20260509131540 | 69 | 143 | 0.0 | 1.7 | 0.00 | 0.00 | 0.00 | 81 | 1010.3 |
| 20260509130042 | 68 | 0 | 0.0 | 0.9 | 0.00 | 0.00 | 0.00 | 82 | 1010.3 |
| 20260509124538 | 68 | 0 | 0.0 | 0.0 | 0.00 | 0.18 | 0.00 | 82 | 1010.2 |
| 20260509123045 | 68 | 0 | 0.0 | 0.9 | 0.00 | 0.18 | 0.00 | 82 | 1010.2 |
| 20260509121534 | 68 | 0 | 0.0 | 0.0 | 0.00 | 0.18 | 0.00 | 82 | 1010.2 |
| 20260509120033 | 67 | 139 | 0.0 | 0.9 | 0.00 | 0.18 | 0.00 | 81 | 1010.0 |
| 20260509114535 | 68 | 0 | 0.0 | 2.6 | 0.00 | 0.20 | 0.00 | 80 | 1009.7 |
| 20260509113038 | 68 | 140 | 0.0 | 3.5 | 0.00 | 0.20 | 0.00 | 79 | 1009.6 |
| 20260509111542 | 68 | 0 | 0.0 | 0.9 | 0.00 | 0.20 | 0.00 | 79 | 1009.1 |
| 20260509110033 | 68 | 0 | 0.0 | 0.9 | 0.00 | 0.20 | 0.00 | 78 | 1008.8 |
| 20260509104536 | 68 | 0 | 0.0 | 0.0 | 0.00 | 0.30 | 0.00 | 77 | 1008.7 |
| 20260509103045 | 68 | 0 | 0.0 | 0.0 | 0.00 | 0.30 | 0.00 | 76 | 1008.5 |
| 20260509101539 | 69 | 0 | 0.0 | 0.0 | 0.00 | 0.30 | 0.00 | 75 | 1008.4 |
| 20260509100045 | 69 | 0 | 0.0 | 0.0 | 0.00 | 0.30 | 0.00 | 73 | 1008.4 |
| 20260509094534 | 70 | 0 | 0.0 | 0.0 | 0.00 | 0.40 | 0.00 | 72 | 1008.1 |
| 20260509093035 | 71 | 0 | 0.0 | 0.9 | 0.00 | 0.40 | 0.00 | 72 | 1007.8 |
| 20260509091538 | 71 | 0 | 0.0 | 1.7 | 0.00 | 0.40 | 0.00 | 73 | 1007.6 |
| 20260509090036 | 72 | 0 | 0.0 | 3.5 | 0.00 | 0.40 | 0.00 | 73 | 1007.8 |
| 20260509084532 | 72 | 153 | 0.0 | 16.5 | 0.00 | 0.40 | 0.00 | 74 | 1007.6 |
| 20260509083041 | 70 | 311 | 2.6 | 9.6 | 0.00 | 0.40 | 0.00 | 77 | 1004.9 |
| 20260509081539 | 70 | 12 | 3.5 | 11.3 | 0.00 | 0.40 | 0.00 | 78 | 1005.2 |
| 20260509080034 | 70 | 359 | 2.6 | 9.6 | 0.00 | 0.40 | 0.00 | 79 | 1006.8 |
| 20260509074541 | 70 | 91 | 1.7 | 7.0 | 0.00 | 0.69 | 0.00 | 79 | 1008.1 |
| 20260509073038 | 70 | 77 | 0.0 | 4.3 | 0.00 | 0.69 | 0.00 | 80 | 1009.0 |
| 20260509071532 | 69 | 68 | 1.7 | 3.5 | 0.00 | 0.69 | 0.00 | 82 | 1009.2 |
| 20260509070034 | 69 | 0 | 0.0 | 2.6 | 0.00 | 0.69 | 0.00 | 83 | 1009.9 |
| 20260509064533 | 68 | 0 | 0.0 | 0.9 | 0.00 | 0.69 | 0.00 | 83 | 1010.3 |
| 20260509063036 | 68 | 0 | 0.0 | 0.9 | 0.00 | 0.69 | 0.00 | 82 | 1010.4 |
| 20260509061550 | 68 | 0 | 0.0 | 0.0 | 0.00 | 0.69 | 0.00 | 81 | 1010.4 |